Home > Weather > Grand Rapids > Past weeks

Flag for USA Past Weather in Grand Rapids, Michigan, USA — Yesterday and Last 2 Weeks

Now
73 °F

Thunderstorms. Fog.


Feels Like: 70 °F
Forecast: 65 / 79 °F
Wind: 10 mph from West

Location: Kent County International Airport

Current Time: Aug 25, 2016 at 7:42:01 AM

Latest Report: Aug 25, 2016 at 6:53 AM


Visibility: 4 mi

Pressure: 29.96 "Hg

Humidity: 94%

Dew Point: 71 °F

Location of Grand RapidsLocation

Past Weather in Grand Rapids — Graph

°F

Grand Rapids Temperature Yesterday

Maximum temperature yesterday: 80 °F (at 2:53 PM)
Minimum temperature yesterday: 62 °F (at 2:53 AM)
Average temperature yesterday: 72 °F

High & Low Weather Summary for the Past Weeks

 TemperatureHumidityPressure
High90 °F (Aug 10, 1:53 PM)97% (Aug 13, 1:53 AM)30.24 "Hg (Aug 13, 1:53 AM)
Low54 °F (Aug 22, 4:53 AM)41% (Aug 10, 1:53 PM)29.56 "Hg (Aug 20, 5:53 PM)
Average73 °F76%29.97 "Hg
* Reported Aug 10 5:53 AM — Aug 25 5:53 AM, Grand Rapids, Weather by CustomWeather, © 2016

Note: Actual official high and low records may vary slightly from our data, if they occured in-between our weather recording intervals... More about our weather records

Advertising

Grand Rapids Weather History for the Previous 24 Hours

Scroll right to see more
 ConditionsComfort  
Time TempWeatherWind HumidityBarometerVisibility
5:53 AM
Thu, Aug 25
73 °FLight rain. Fog.5 mph94%29.95 "Hg6 mi
4:53 AM74 °FOvercast.5 mph91%29.95 "Hg7 mi
4:01 AM74 °FHeavy rain. Fog.6 mph88%29.97 "Hg2 mi
3:53 AM74 °FPartly cloudy.5 mph88%29.95 "Hg10 mi
2:53 AM74 °FPassing clouds.8 mph88%29.94 "Hg8 mi
1:53 AM74 °FPassing clouds.9 mph88%29.93 "Hg9 mi
12:53 AM74 °FPassing clouds.5 mph88%29.93 "Hg7 mi
11:53 PM
Wed, Aug 24
74 °FPassing clouds.7 mph91%29.94 "Hg7 mi
10:53 PM74 °FPassing clouds.3 mph88%29.95 "Hg7 mi
9:53 PM74 °FClear.5 mph88%29.95 "Hg9 mi
8:53 PM75 °FScattered clouds.6 mph85%29.94 "Hg10 mi
7:53 PM78 °FBroken clouds.9 mph76%29.93 "Hg10 mi
6:53 PM78 °FPartly sunny.13 mph76%29.93 "Hg10 mi
5:53 PM80 °FBroken clouds.14 mph71%29.93 "Hg10 mi
4:53 PM80 °FBroken clouds.14 mph71%29.93 "Hg10 mi
3:53 PM79 °FMostly cloudy.14 mph74%29.94 "Hg10 mi
2:53 PM80 °FBroken clouds.13 mph69%29.94 "Hg10 mi
1:53 PM77 °FOvercast.13 mph77%29.98 "Hg10 mi
12:53 PM75 °FOvercast.12 mph79%29.98 "Hg10 mi
11:53 AM74 °FLight rain. Overcast.10 mph82%30.01 "Hg8 mi
10:53 AM74 °FOvercast.10 mph74%30.01 "Hg10 mi
9:53 AM73 °FMostly cloudy.13 mph74%30.02 "Hg10 mi
8:53 AM71 °FPartly sunny.14 mph76%30.03 "Hg10 mi
7:53 AM67 °FOvercast.12 mph81%30.04 "Hg10 mi
Weather by CustomWeather, © 2016

See weather overviewHow to use our weather pages